This demonstration page uses our WeatherBlox Daily Observations layout. Learn more.

Left ArrowRight Arrow

Hourly Observations for October 26, 2022

Temp ( °F °C ) Dew Point ( °F °C ) Humidity (%) Winds ( mph kmh ) Pressure ( in mb ) Visibility ( mi km ) Precip ( " mm )
12:53 am 00:53 Clear 32 0 27 -2.8 81 81 W 6 9 29.92 1013 N/A 0.00 0.00
1:53 am 01:53 Clear 30 -1.1 26 -3.3 85 85 WNW 5 7 29.91 1013 N/A 0.00 0.00
2:53 am 02:53 Clear 30 -1.1 26 -3.3 85 85 W 5 7 29.91 1013 N/A 0.00 0.00
3:53 am 03:53 Clear 30 -1.1 26 -3.3 85 85 WSW 7 11 29.89 1012 N/A 0.00 0.00
4:53 am 04:53 Clear 31 -0.6 26 -3.3 82 82 VRB 3 6 29.88 1012 N/A 0.00 0.00
5:53 am 05:53 Clear 30 -1.1 25 -3.9 81 81 VRB 3 6 29.88 1012 N/A 0.00 0.00
6:53 am 06:53 Clear 29 -1.7 24 -4.4 82 82 W 3 6 29.89 1012 N/A 0.00 0.00
7:53 am 07:53 Clear 29 -1.7 24 -4.4 82 82 WNW 3 6 29.89 1012 N/A 0.00 0.00
8:53 am 08:53 Sunny 31 -0.6 26 -3.3 82 82 NNW 3 6 29.88 1012 N/A 0.00 0.00
9:53 am 09:53 Sunny 34 1.1 28 -2.2 79 79 NW 3 6 29.88 1012 N/A 0.00 0.00
10:53 am 10:53 Sunny 41 5 30 -1.1 65 65 SSW 5 7 29.86 1011 N/A 0.00 0.00
11:53 am 11:53 Sunny 46 7.8 27 -2.8 47 47 SW 12 19 29.85 1011 N/A 0.00 0.00
12:53 pm 12:53 Sunny 48 8.9 27 -2.8 44 44 SW 13 20 29.83 1010 10 16 0.00 0.00
1:53 pm 13:53 Sunny 50 10 26 -3.3 39 39 WSW 14 22 29.82 1010 10 16 0.00 0.00
2:53 pm 14:53 Sunny 51 10.6 27 -2.8 39 39 WSW 14 22 29.81 1009 10 16 0.00 0.00
3:53 pm 15:53 Sunny 48 8.9 28 -2.2 46 46 SW 10 17 29.82 1010 10 16 0.00 0.00
4:53 pm 16:53 Sunny 50 10 27 -2.8 40 40 WSW 10 17 29.81 1010 10 16 0.00 0.00
5:53 pm 17:53 Sunny 45 7.2 29 -1.7 53 53 WNW 6 9 29.83 1010 10 16 0.00 0.00
6:53 pm 18:53 Clear 36 2.2 28 -2.2 73 73 SSW 10 17 29.85 1011 10 16 0.00 0.00
7:53 pm 19:53 Clear 34 1.1 27 -2.8 75 75 SSW 9 15 29.87 1012 10 16 0.00 0.00
8:53 pm 20:53 Clear 36 2.2 28 -2.2 73 73 SW 14 22 29.88 1012 10 16 0.00 0.00
9:53 pm 21:53 Clear 35 1.7 29 -1.7 78 78 SW 12 19 29.88 1012 10 16 0.00 0.00
10:53 pm 22:53 Clear 35 1.7 28 -2.2 75 75 SW 13 20 29.88 1012 10 16 0.00 0.00
11:53 pm 23:53 Clear 35 1.7 28 -2.2 75 75 SW 15 24 29.87 1012 10 16 0.00 0.00

Powered by AerisWeather